Location: Palomar Mountain Lodge
(33.3110°N, 116.8495°W)
Time: 11:03:20
(UTC-07:00)

Cosmos 1455 Rocket - Pass Details

Date: 19 May 2017
Orbit: 604 x 631 km, 82.5° (Epoch: 25 September)

Event Time Altitude Azimuth Distance (km) Brightness Sun altitude
Rises 21:17:38 0° 355° (N) 2,886 7.2 -17.5°
Reaches altitude 10° 21:19:53 10° 356° (N) 1,972 6.2 -17.8°
Maximum altitude 21:24:15 80° 84° (E) 622 2.9 -18.5°
Enters shadow 21:25:57 36° 166° (SSE) 960 3.6 -18.8°
